Location: EverStaR Observatory
(38.9036°N, 94.8303°W)
Time: 05:37:20
(UTC-05:00)

ISS - Visible Passes

Search period start: 23 October 2019 00:00
Search period end: 02 November 2019 00:00
Orbit: 411 x 421 km, 51.6° (Epoch: 23 October)

Date Brightness Start Highest point End Pass type
(mag) Time Alt. Az. Time Alt. Az. Time Alt. Az.
23 Oct -1.9 06:45:13 10° SSW 06:48:15 31° SE 06:51:17 10° ENE visible
24 Oct -1.0 05:57:29 10° S 05:59:51 18° SE 06:02:12 10° E visible
25 Oct -3.8 06:44:23 10° SW 06:47:44 82° NW 06:51:06 10° NE visible
26 Oct -3.2 05:58:36 45° S 05:59:12 53° SE 06:02:30 10° ENE visible
27 Oct -0.8 05:12:37 17° E 05:12:37 17° E 05:13:40 10° ENE visible
27 Oct -2.8 06:45:33 18° W 06:47:24 31° NNW 06:50:27 10° NE visible
28 Oct -3.0 05:59:23 42° N 05:59:23 42° N 06:02:00 10° NE visible
29 Oct -0.6 05:13:05 13° NE 05:13:05 13° NE 05:13:28 10° NE visible
29 Oct -1.8 06:46:00 14° NW 06:47:13 17° NNW 06:49:31 10° NNE visible
30 Oct -1.7 05:59:35 19° N 05:59:35 19° N 06:01:10 10° NNE visible
31 Oct -1.3 06:45:59 10° NNW 06:47:10 11° NNW 06:48:21 10° N visible
01 Nov -1.1 05:59:25 12° N 05:59:25 12° N 06:00:05 10° NNE visible
